This is the latest recevied weather packets stored in our database for station/object K8MUD. If no packets are shown the sender has not sent any weather packets the latest 10 day(s).
| Time | Temp. | Humidity | Pressure | Rain* | Wind** | Luminosity | Snow |
|---|---|---|---|---|---|---|---|
| 1777925391 | 25.56° C | 34% | 999.9 hPa | 0 mm | - | - | - |
| 1777925091 | 25.56° C | 34% | 1000 hPa | 0 mm | - | - | - |
| 1777924791 | 25.56° C | 34% | 1000 hPa | 0 mm | - | - | - |
| 1777924491 | 25.56° C | 34% | 999.9 hPa | 0 mm | - | - | - |
| 1777924191 | 25.56° C | 34% | 1000.1 hPa | 0 mm | - | - | - |
| 1777923891 | 25.56° C | 32% | 1000.1 hPa | 0 mm | - | - | - |
| 1777923591 | 25.56° C | 34% | 1000.1 hPa | 0 mm | - | - | - |
| 1777923290 | 26.11° C | 32% | 1000.2 hPa | 0 mm | - | - | - |
| 1777922990 | 26.11° C | 33% | 1000.3 hPa | 0 mm | - | - | - |
| 1777922690 | 26.11° C | 31% | 1000.4 hPa | 0 mm | - | - | - |
| 1777922390 | 26.11° C | 31% | 1000.5 hPa | 0 mm | - | - | - |
| 1777922090 | 26.11° C | 33% | 1000.5 hPa | 0 mm | - | - | - |
| 1777921790 | 25.56° C | 34% | 1000.5 hPa | 0 mm | - | - | - |
| 1777921490 | 25.56° C | 33% | 1000.6 hPa | 0 mm | - | - | - |
| 1777921190 | 25.56° C | 34% | 1000.8 hPa | 0 mm | - | - | - |
| 1777920890 | 25° C | 33% | 1000.9 hPa | 0 mm | - | - | - |
| 1777920590 | 25.56° C | 33% | 1000.8 hPa | 0 mm | - | - | - |
| 1777920290 | 25.56° C | 35% | 1000.7 hPa | 0 mm | - | - | - |
| 1777919990 | 25.56° C | 36% | 1000.8 hPa | 0 mm | - | - | - |
| 1777919690 | 25.56° C | 33% | 1001 hPa | 0 mm | - | - | - |
| 1777919390 | 25.56° C | 35% | 1001 hPa | 0 mm | - | - | - |
| 1777919090 | 25° C | 41% | 1001 hPa | 0 mm | - | - | - |
| 1777918789 | 24.44° C | 44% | 1001.2 hPa | 0 mm | - | - | - |
| 1777918489 | 24.44° C | 45% | 1001.1 hPa | 0 mm | - | - | - |
| 1777918189 | 24.44° C | 44% | 1001.2 hPa | 0 mm | - | - | - |
* Rain latest hour (hover to see other rain measurements)
** Current wind speed in m/s (hover to see current wind gust speed)